[TLELIST] Archives

 

[list_settings.list_name] Current TLEs

July 6th 2010 PST

HST 1 20580U 90037B 10185.13600233 .00000230 00000-0 47525-5 0 5963 2 20580 028.4686 129.2092 0003036 024.6125 335.4638 15.00992912907307 ISS (ZARYA) 1 25544U 98067A 10187.45809149 .00005988 00000-0 48840-4 0 4619 2 25544 051.6462 131.9586 0010202 048.2613 054.8241 15.72242965666508 CXO 1 25867U 99040B 10187.54166667 -.00000296 00000-0 10000-3 0 4850 2 25867 067.2345 052.5771 8194366 275.3438 354.3992 00.37803014 6460 ____________________________________________________________________ These 2-Line ...Continue Reading

[list_settings.list_name] Current TLEs

July 5th 2010 PST

HST 1 20580U 90037B 10185.13600233 .00000230 00000-0 47525-5 0 5963 2 20580 028.4686 129.2092 0003036 024.6125 335.4638 15.00992912907307 ISS (ZARYA) 1 25544U 98067A 10186.44012351 -.00012249 00000-0 -85997-4 0 4544 2 25544 051.6470 137.1724 0009981 043.5950 053.8707 15.72233984666342 CXO 1 25867U 99040B 10184.91666667 -.00000238 00000-0 10000-3 0 4848 2 25867 067.2170 052.7416 8193803 275.3234 357.0619 00.37807666 6455 ____________________________________________________________________ These 2-Line ...Continue Reading

[list_settings.list_name] Current TLEs

July 4th 2010 PST

HST 1 20580U 90037B 10185.13600233 .00000230 00000-0 47525-5 0 5963 2 20580 028.4686 129.2092 0003036 024.6125 335.4638 15.00992912907307 ISS (ZARYA) 1 25544U 98067A 10185.48760692 .00036079 00000-0 27007-3 0 4479 2 25544 051.6473 142.0502 0010134 039.5490 063.0543 15.72237682666193 CXO 1 25867U 99040B 10184.91666667 -.00000238 00000-0 10000-3 0 4848 2 25867 067.2170 052.7416 8193803 275.3234 357.0619 00.37807666 6455 ____________________________________________________________________ These 2-Line ...Continue Reading

[list_settings.list_name] Current TLEs

July 3rd 2010 PST

HST 1 20580U 90037B 10184.07213341 .00000377 00000-0 16007-4 0 5956 2 20580 028.4679 136.1551 0003144 011.5865 348.4829 15.00992764907145 ISS (ZARYA) 1 25544U 98067A 10184.47004749 .00011710 00000-0 91217-4 0 4392 2 25544 051.6471 147.2569 0010012 037.5194 061.8896 15.72191638666035 CXO 1 25867U 99040B 10184.91666667 -.00000238 00000-0 10000-3 0 4848 2 25867 067.2170 052.7416 8193803 275.3234 357.0619 00.37807666 6455 ____________________________________________________________________ These 2-Line ...Continue Reading

[list_settings.list_name] Current TLEs

July 2nd 2010 PST

HST 1 20580U 90037B 10182.34335461 .00000234 00000-0 17837-4 0 5945 2 20580 028.4682 147.4498 0002892 358.8779 001.2267 15.00992347906881 ISS (ZARYA) 1 25544U 98067A 10183.51701549 .00011952 00000-0 93098-4 0 4317 2 25544 051.6467 152.1351 0009959 034.1921 067.5748 15.72169134665880 CXO 1 25867U 99040B 10182.29166667 -.00000265 00000-0 10000-3 0 4831 2 25867 067.2048 052.8759 8191150 275.2999 359.7639 00.37805213 6446 ____________________________________________________________________ These 2-Line ...Continue Reading

[list_settings.list_name] Current TLEs

July 1st 2010 PST

HST 1 20580U 90037B 10181.21298278 .00000365 00000-0 15108-4 0 5937 2 20580 028.4679 154.8183 0003144 340.4232 019.6272 15.00991485906715 ISS (ZARYA) 1 25544U 98067A 10182.49915706 .00033784 00000-0 25410-3 0 4235 2 25544 051.6469 157.3506 0010071 029.9474 067.1106 15.72159514665721 CXO 1 25867U 99040B 10182.29166667 -.00000265 00000-0 10000-3 0 4831 2 25867 067.2048 052.8759 8191150 275.2999 359.7639 00.37805213 6446 ____________________________________________________________________ These 2-Line ...Continue Reading

[list_settings.list_name] Current TLEs

June 30th 2010 PST

HST 1 20580U 90037B 10181.21298278 .00000365 00000-0 15108-4 0 5937 2 20580 028.4679 154.8183 0003144 340.4232 019.6272 15.00991485906715 ISS (ZARYA) 1 25544U 98067A 10181.48094063 .00014542 00000-0 11243-3 0 4170 2 25544 051.6462 162.5625 0010135 025.6825 064.7247 15.72124385665567 CXO 1 25867U 99040B 10182.29166667 -.00000265 00000-0 10000-3 0 4831 2 25867 067.2048 052.8759 8191150 275.2999 359.7639 00.37805213 6446 ____________________________________________________________________ These 2-Line ...Continue Reading

[list_settings.list_name] Current TLEs

June 29th 2010 PST

HST 1 20580U 90037B 10180.21560439 .00000357 00000-0 14506-4 0 5928 2 20580 028.4679 161.3322 0003140 328.8028 031.2397 15.00991005906561 ISS (ZARYA) 1 25544U 98067A 10180.52838237 .00011392 00000-0 89322-4 0 4100 2 25544 051.6465 167.4369 0009820 024.4729 071.1823 15.72072937665419 CXO 1 25867U 99040B 10179.62500000 -.00000365 00000-0 10000-3 0 4827 2 25867 067.1929 052.9828 8187925 275.2892 356.7904 00.37803574 6437 ____________________________________________________________________ These 2-Line ...Continue Reading

[list_settings.list_name] Current TLEs

June 28th 2010 PST

HST 1 20580U 90037B 10179.08524215 .00000329 00000-0 12319-4 0 5911 2 20580 028.4682 168.7137 0003128 313.8734 046.1634 15.00990403906395 ISS (ZARYA) 1 25544U 98067A 10179.51971042 .00009135 00000-0 72665-4 0 4046 2 25544 051.6464 172.6013 0009722 019.6955 123.6023 15.72040395665250 CXO 1 25867U 99040B 10179.62500000 -.00000365 00000-0 10000-3 0 4827 2 25867 067.1929 052.9828 8187925 275.2892 356.7904 00.37803574 6437 ____________________________________________________________________ These 2-Line ...Continue Reading

[list_settings.list_name] Current TLEs

June 27th 2010 PST

HST 1 20580U 90037B 10178.02137213 .00000322 00000-0 11817-4 0 5906 2 20580 028.4684 175.6594 0003136 303.6438 056.3912 15.00989994906236 ISS (ZARYA) 1 25544U 98067A 10178.50184692 .00007325 00000-0 59268-4 0 3975 2 25544 051.6460 177.8125 0009626 015.3042 123.6999 15.72014075665090 CXO 1 25867U 99040B 10177.00000000 -.00000494 00000-0 10000-3 0 4814 2 25867 067.1808 053.0931 8184942 275.2763 359.4793 00.37805454 6427 ____________________________________________________________________ These 2-Line ...Continue Reading
  • This mailing list is a public mailing list - anyone may join or leave, at any time.
  • This mailing list is announce-only.

International Space Station (ISS) / Hubble Space Telescope (HST) / Chandra X-Ray Observatory Orbital Data via EMAIL

Privacy Policy:

Private list